Voltar ao catálogo

STARLINK-2412

AtivoComunicaçõesVLEO
NORAD 48094·PAYLOAD·🇺🇸 United States

Lançado Apr 7, 2021 de Cape Canaveral Space Force Station

Loading…

Próximas Passagens (próximas 24 horas)

TLE

AtualizadoSource: CelesTrak SupGP

Época: Sep 14, 2026, 21:04 UTC

1 48094C 21027C   26257.87826389 -.00015006  00000+0 -48253-3 0  2575
2 48094  53.1605   5.3045 0001002  57.3951 234.5404 15.31710832    11

Acompanhe STARLINK-2412 em tempo real com AllMySat

Download on the App Store